TimeCDT,TemperatureF,Dew PointF,Humidity,Sea Level PressureIn,VisibilityMPH,Wind Direction,Wind SpeedMPH,Gust SpeedMPH,PrecipitationIn,Events,Conditions,WindDirDegrees,DateUTC
12:14 AM,51.8,46.4,82,30.15,10.0,ESE,9.2,-,N/A,,Overcast,120,2013-05-26 05:14:00
12:34 AM,51.8,44.6,76,30.15,10.0,ESE,11.5,20.7,N/A,,Overcast,110,2013-05-26 05:34:00
12:54 AM,51.8,46.4,82,30.17,10.0,ESE,12.7,18.4,N/A,,Overcast,120,2013-05-26 05:54:00
1:13 AM,51.8,46.4,82,30.16,10.0,ESE,13.8,20.7,N/A,,Overcast,120,2013-05-26 06:13:00
1:34 AM,51.8,46.4,82,30.14,10.0,ESE,13.8,18.4,N/A,,Overcast,110,2013-05-26 06:34:00
1:54 AM,51.8,46.4,82,30.13,10.0,East,11.5,18.4,N/A,,Overcast,100,2013-05-26 06:54:00
2:14 AM,51.8,44.6,76,30.12,10.0,ESE,15.0,19.6,N/A,,Overcast,110,2013-05-26 07:14:00
2:34 AM,50.0,44.6,82,30.13,10.0,ESE,12.7,-,N/A,,Overcast,120,2013-05-26 07:34:00
2:54 AM,50.0,44.6,82,30.12,10.0,ESE,15.0,20.7,N/A,,Overcast,120,2013-05-26 07:54:00
3:14 AM,50.0,44.6,82,30.11,10.0,ESE,13.8,25.3,N/A,,Overcast,120,2013-05-26 08:14:00
3:34 AM,50.0,44.6,82,30.10,10.0,ESE,12.7,19.6,N/A,,Overcast,110,2013-05-26 08:34:00
3:54 AM,50.0,44.6,82,30.11,10.0,ESE,12.7,21.9,N/A,,Overcast,120,2013-05-26 08:54:00
4:14 AM,50.0,44.6,82,30.13,10.0,East,11.5,17.3,N/A,,Overcast,100,2013-05-26 09:14:00
4:34 AM,50.0,44.6,82,30.12,10.0,ESE,15.0,21.9,N/A,,Mostly Cloudy,110,2013-05-26 09:34:00
4:54 AM,50.0,42.8,76,30.14,10.0,East,16.1,21.9,N/A,,Mostly Cloudy,100,2013-05-26 09:54:00
5:13 AM,50.0,42.8,76,30.14,10.0,East,12.7,18.4,N/A,,Overcast,100,2013-05-26 10:13:00
5:34 AM,50.0,42.8,76,30.12,10.0,East,17.3,23.0,N/A,,Overcast,90,2013-05-26 10:34:00
5:54 AM,50.0,42.8,76,30.13,10.0,ESE,17.3,25.3,N/A,,Overcast,110,2013-05-26 10:54:00
6:14 AM,50.0,42.8,76,30.13,10.0,ESE,10.4,19.6,N/A,,Overcast,110,2013-05-26 11:14:00
6:34 AM,50.0,42.8,76,30.13,10.0,ESE,12.7,18.4,N/A,,Overcast,110,2013-05-26 11:34:00
6:54 AM,50.0,42.8,76,30.13,10.0,ESE,12.7,19.6,N/A,,Overcast,110,2013-05-26 11:54:00
7:14 AM,50.0,42.8,76,30.13,10.0,ESE,16.1,-,N/A,,Overcast,110,2013-05-26 12:14:00
7:34 AM,50.0,42.8,76,30.13,10.0,ESE,10.4,16.1,N/A,,Overcast,110,2013-05-26 12:34:00
7:54 AM,50.0,44.6,82,30.12,10.0,ESE,13.8,19.6,N/A,,Overcast,110,2013-05-26 12:54:00
8:13 AM,51.8,44.6,76,30.11,10.0,ESE,15.0,24.2,N/A,,Mostly Cloudy,110,2013-05-26 13:13:00
8:34 AM,51.8,44.6,76,30.11,10.0,ESE,17.3,25.3,N/A,,Mostly Cloudy,110,2013-05-26 13:34:00
8:54 AM,51.8,44.6,76,30.10,10.0,ESE,20.7,31.1,N/A,,Overcast,120,2013-05-26 13:54:00
9:14 AM,51.8,44.6,76,30.09,10.0,ESE,23.0,34.5,N/A,,Overcast,120,2013-05-26 14:14:00
9:34 AM,51.8,44.6,76,30.11,10.0,ESE,21.9,27.6,N/A,,Overcast,120,2013-05-26 14:34:00
9:54 AM,53.6,46.4,77,30.13,10.0,SE,18.4,24.2,N/A,,Overcast,130,2013-05-26 14:54:00
10:14 AM,53.6,46.4,77,30.14,10.0,SE,16.1,25.3,N/A,,Overcast,130,2013-05-26 15:14:00
10:33 AM,51.8,46.4,82,30.15,10.0,SE,12.7,20.7,N/A,,Overcast,140,2013-05-26 15:33:00
10:54 AM,51.8,46.4,82,30.14,10.0,SE,12.7,21.9,N/A,,Overcast,140,2013-05-26 15:54:00
11:14 AM,51.8,46.4,82,30.14,7.0,SE,13.8,18.4,N/A,,Overcast,130,2013-05-26 16:14:00
11:34 AM,51.8,46.4,82,30.11,10.0,ESE,16.1,19.6,N/A,,Overcast,110,2013-05-26 16:34:00
11:54 AM,53.6,50.0,88,30.08,7.0,ESE,20.7,27.6,N/A,,Overcast,110,2013-05-26 16:54:00
12:13 PM,53.6,48.2,82,30.09,7.0,ESE,24.2,31.1,N/A,,Overcast,110,2013-05-26 17:13:00
12:34 PM,51.8,46.4,82,30.12,10.0,ESE,18.4,26.5,N/A,,Overcast,120,2013-05-26 17:34:00
12:54 PM,53.6,48.2,82,30.12,10.0,SE,13.8,26.5,N/A,,Overcast,130,2013-05-26 17:54:00
1:13 PM,53.6,48.2,82,30.16,7.0,SE,15.0,19.6,N/A,,Overcast,140,2013-05-26 18:13:00
1:34 PM,53.6,50.0,88,30.11,10.0,SE,15.0,23.0,N/A,,Overcast,130,2013-05-26 18:34:00
1:54 PM,51.8,46.4,82,30.06,7.0,SE,24.2,32.2,N/A,,Overcast,130,2013-05-26 18:54:00
2:13 PM,51.8,46.4,82,30.04,7.0,ESE,16.1,31.1,N/A,,Overcast,110,2013-05-26 19:13:00
2:34 PM,51.8,46.4,82,30.03,10.0,East,18.4,26.5,N/A,,Overcast,100,2013-05-26 19:34:00
2:53 PM,51.8,46.4,82,30.05,10.0,East,21.9,25.3,N/A,,Overcast,100,2013-05-26 19:53:00
3:14 PM,53.6,50.0,88,30.06,10.0,ESE,13.8,26.5,N/A,,Overcast,110,2013-05-26 20:14:00
3:34 PM,53.6,50.0,88,30.06,10.0,East,16.1,23.0,N/A,,Overcast,100,2013-05-26 20:34:00
3:54 PM,53.6,48.2,82,30.06,10.0,ESE,19.6,26.5,N/A,,Overcast,110,2013-05-26 20:54:00
4:14 PM,53.6,48.2,82,30.06,10.0,ESE,12.7,25.3,N/A,,Overcast,110,2013-05-26 21:14:00
4:33 PM,53.6,48.2,82,30.06,10.0,East,11.5,19.6,N/A,,Overcast,90,2013-05-26 21:33:00
4:54 PM,53.6,48.2,82,30.06,10.0,East,10.4,17.3,N/A,,Overcast,90,2013-05-26 21:54:00
5:14 PM,53.6,50.0,88,30.07,10.0,ESE,13.8,20.7,N/A,,Overcast,110,2013-05-26 22:14:00
5:34 PM,53.6,50.0,88,30.06,10.0,East,11.5,-,N/A,,Overcast,100,2013-05-26 22:34:00
5:54 PM,53.6,50.0,88,30.06,10.0,East,15.0,-,N/A,,Overcast,100,2013-05-26 22:54:00
6:13 PM,53.6,50.0,88,30.08,10.0,East,11.5,19.6,N/A,,Overcast,100,2013-05-26 23:13:00
6:34 PM,53.6,50.0,88,30.08,10.0,ESE,15.0,24.2,N/A,,Overcast,120,2013-05-26 23:34:00
6:54 PM,53.6,50.0,88,30.08,10.0,ESE,15.0,23.0,N/A,,Overcast,110,2013-05-26 23:54:00
7:14 PM,53.6,50.0,88,30.08,10.0,ESE,6.9,17.3,N/A,,Overcast,110,2013-05-27 00:14:00
7:34 PM,53.6,50.0,88,30.08,10.0,ESE,13.8,19.6,N/A,,Overcast,110,2013-05-27 00:34:00
7:54 PM,53.6,50.0,88,30.07,3.0,East,3.5,-,N/A,,Overcast,100,2013-05-27 00:54:00
8:14 PM,53.6,51.8,94,30.07,1.5,ESE,11.5,16.1,N/A,,Overcast,110,2013-05-27 01:14:00
8:33 PM,53.6,51.8,94,30.06,1.2,ESE,6.9,-,N/A,,Overcast,110,2013-05-27 01:33:00
8:54 PM,53.6,51.8,94,30.06,2.0,East,10.4,16.1,N/A,,Overcast,100,2013-05-27 01:54:00
9:13 PM,53.6,51.8,94,30.06,4.0,East,11.5,-,N/A,,Overcast,100,2013-05-27 02:13:00
9:34 PM,53.6,51.8,94,30.05,7.0,East,12.7,17.3,N/A,,Overcast,100,2013-05-27 02:34:00
9:53 PM,53.6,51.8,94,30.05,10.0,ESE,11.5,17.3,N/A,,Overcast,110,2013-05-27 02:53:00
10:14 PM,53.6,51.8,94,30.04,10.0,ESE,13.8,18.4,N/A,,Overcast,110,2013-05-27 03:14:00
10:33 PM,53.6,51.8,94,30.02,10.0,ESE,15.0,20.7,N/A,,Overcast,110,2013-05-27 03:33:00
10:54 PM,53.6,50.0,88,30.00,10.0,ESE,15.0,20.7,N/A,,Overcast,110,2013-05-27 03:54:00
11:14 PM,53.6,50.0,88,29.99,10.0,ESE,13.8,18.4,N/A,,Overcast,110,2013-05-27 04:14:00
11:34 PM,53.6,50.0,88,30.00,10.0,ESE,13.8,17.3,N/A,,Overcast,110,2013-05-27 04:34:00
11:54 PM,53.6,50.0,88,30.00,10.0,ESE,17.3,21.9,N/A,,Overcast,110,2013-05-27 04:54:00